This is the latest recevied weather packets stored in our database for station/object HG5CJW-10. If no packets are shown the sender has not sent any weather packets the latest 10 day(s).
| Time | Temp. | Humidity | Pressure | Rain* | Wind** | Luminosity | Snow |
|---|---|---|---|---|---|---|---|
| 1777661446 | 15.56° C | 43% | 1042.9 hPa | - | - | - | - |
| 1777660546 | 15.56° C | 42% | 1042.9 hPa | - | - | - | - |
| 1777659646 | 16.11° C | 42% | 1042.8 hPa | - | - | - | - |
| 1777658746 | 16.11° C | 42% | 1042.6 hPa | - | - | - | - |
| 1777657846 | 16.11° C | 41% | 1042.6 hPa | - | - | - | - |
| 1777656046 | 16.67° C | 41% | 1042.4 hPa | - | - | - | - |
| 1777655146 | 16.67° C | 40% | 1042.5 hPa | - | - | - | - |
| 1777654246 | 16.11° C | 40% | 1042 hPa | - | - | - | - |
| 1777653340 | 16.67° C | 40% | 1042.5 hPa | - | - | - | - |
| 1777652440 | 16.67° C | 40% | 1042.4 hPa | - | - | - | - |
| 1777651540 | 16.67° C | 40% | 1042.6 hPa | - | - | - | - |
| 1777650640 | 16.67° C | 40% | 1042.6 hPa | - | - | - | - |
| 1777649740 | 16.67° C | 40% | 1042.8 hPa | - | - | - | - |
| 1777648840 | 16.67° C | 39% | 1043 hPa | - | - | - | - |
| 1777647940 | 16.67° C | 39% | 1043 hPa | - | - | - | - |
| 1777647040 | 16.67° C | 39% | 1043.1 hPa | - | - | - | - |
| 1777646140 | 16.67° C | 39% | 1043.2 hPa | - | - | - | - |
| 1777645240 | 16.67° C | 39% | 1043.3 hPa | - | - | - | - |
| 1777644339 | 16.67° C | 39% | 1043.3 hPa | - | - | - | - |
| 1777643439 | 16.67° C | 39% | 1043.4 hPa | - | - | - | - |
| 1777642539 | 16.11° C | 39% | 1043.6 hPa | - | - | - | - |
| 1777640739 | 15.56° C | 39% | 1043.3 hPa | - | - | - | - |
| 1777639834 | 15.56° C | 39% | 1043.8 hPa | - | - | - | - |
| 1777638934 | 15.56° C | 40% | 1043.9 hPa | - | - | - | - |
| 1777638034 | 15° C | 39% | 1044 hPa | - | - | - | - |
* Rain since midnight (hover to see other rain measurements)
** Current wind speed in m/s (hover to see current wind gust speed)